Flag for Finland Weather past 2 weeks in Helsinki, Finland

Now
34 °F

Low clouds.


Feels Like: 34 °F
Forecast: 33 / 39 °F
Wind: 2 mph from Northwest

Location: Helsinki Malmi Airport

Current Time: Mar 7, 2015 at 12:42:25 AM

Latest Report: Mar 7, 2015 at 12:20 AM


Visibility: N/A

Pressure: 30.15 "Hg

Humidity: 93%

Dew point: 32 °F

Location of HelsinkiLocation

Historic Weather in Helsinki — Graph

°F

Helsinki temperature yesterday

Maximum temperature yesterday: 36 °F (at 9:20 AM)
Minimum temperature yesterday: 34 °F (at 12:20 AM)
Average temperature yesterday: 34 °F

Past Weeks' High & Low Weather Summary

 TemperatureHumidityPressure
High39 °F (Feb 19, 11:50 PM)100% (Feb 19, 11:20 PM)30.33 "Hg (Feb 19, 11:20 PM)
Low30 °F (Feb 27, 5:20 PM)70% (Feb 23, 5:50 PM)29.18 "Hg (Feb 22, 8:50 AM)
Average35 °F91%29.78 "Hg
* Reported Feb 19 11:20 PM — Mar 6 11:20 PM, Helsinki, Weather by CustomWeather, © 2015

Note: Actual official high and low records may vary slightly from our data, if they occured in-between our weather recording intervals... More about our weather records

Advertising

Helsinki weather history for previous 24 hours

 ConditionsComfort  
Time TempWeatherWind HumidityBarometerVisibility
11:20 PM
Fri, Mar 6
34 °FOvercast.2 mph100%30.15 "Hg6 mi
10:50 PM34 °FMostly cloudy.5 mph100%30.15 "HgN/A
10:20 PM34 °FFog.6 mph100%30.15 "Hg2 mi
9:50 PM34 °FFog.3 mph100%30.12 "Hg2 mi
9:20 PM34 °FLow clouds.5 mph100%30.12 "HgN/A
8:50 PM34 °FPassing clouds.6 mph100%30.12 "HgN/A
8:20 PM34 °FLight rain. Passing clouds.8 mph100%30.12 "HgN/A
7:50 PM34 °FLight rain. Passing clouds.8 mph93%30.12 "Hg5 mi
7:20 PM34 °FLight rain. Passing clouds.8 mph93%30.12 "Hg4 mi
6:50 PM34 °FLight rain. Passing clouds.9 mph93%30.12 "Hg2 mi
6:20 PM34 °FLight rain. Passing clouds.9 mph93%30.12 "Hg2 mi
5:50 PM34 °FLight rain. Partly sunny.12 mph100%30.12 "Hg3 mi
5:20 PM36 °FLight rain. Partly sunny.12 mph93%30.12 "Hg4 mi
4:50 PM36 °FLight rain. Partly sunny.13 mph93%30.12 "Hg4 mi
4:20 PM36 °FLight rain. Partly sunny.15 mph93%30.12 "Hg4 mi
3:50 PM36 °FLight rain. Partly sunny.13 mph93%30.12 "HgN/A
3:20 PM36 °FLight rain. Partly sunny.16 mph93%30.12 "HgN/A
2:50 PM36 °FLight rain. Partly sunny.13 mph93%30.12 "Hg5 mi
2:20 PM36 °FLight rain. Partly sunny.14 mph93%30.12 "HgN/A
1:50 PM34 °FLight rain. Partly sunny.16 mph93%30.12 "Hg3 mi
1:20 PM34 °FLight rain. Partly sunny.16 mph93%30.12 "Hg4 mi
12:50 PM34 °FLight rain. Partly sunny.14 mph93%30.15 "Hg4 mi
12:20 PM34 °FLight rain. Partly sunny.14 mph93%30.15 "Hg4 mi
11:50 AM36 °FLight rain. Partly sunny.14 mph87%30.15 "HgN/A
11:20 AM36 °FPartly sunny.17 mph81%30.15 "HgN/A
10:50 AM36 °FBroken clouds.16 mph81%30.15 "HgN/A
10:20 AM36 °FBroken clouds.14 mph81%30.15 "HgN/A
9:50 AM36 °FBroken clouds.12 mph81%30.15 "HgN/A
9:20 AM36 °FPartly sunny.13 mph81%30.18 "HgN/A
8:50 AM34 °FPartly sunny.10 mph87%30.18 "HgN/A
8:20 AM34 °FPartly sunny.10 mph87%30.18 "HgN/A
7:50 AM34 °FLow clouds.12 mph87%30.18 "HgN/A
7:20 AM34 °FPartly sunny.13 mph87%30.21 "HgN/A
6:50 AM34 °FOvercast.12 mph87%30.21 "HgN/A
6:20 AM34 °FOvercast.13 mph87%30.21 "HgN/A
5:20 AM34 °FPassing clouds.10 mph81%30.24 "HgN/A
4:50 AM34 °FPassing clouds.9 mph87%30.24 "HgN/A
4:20 AM34 °FPassing clouds.12 mph87%30.24 "HgN/A
3:50 AM34 °FPassing clouds.9 mph81%30.24 "HgN/A
3:20 AM34 °FClear.9 mph87%30.27 "Hg10 mi
2:50 AM34 °FClear.7 mph87%30.27 "Hg10 mi
2:20 AM34 °FClear.6 mph87%30.30 "Hg10 mi
1:50 AM34 °FPassing clouds.6 mph93%30.30 "HgN/A
1:20 AM34 °FPassing clouds.5 mph93%30.30 "HgN/A
12:50 AM34 °FPassing clouds.5 mph93%30.30 "HgN/A
12:20 AM34 °FPassing clouds.5 mph93%30.30 "HgN/A
Weather by CustomWeather, © 2015

See weather overviewHow to use our weather pages